This demonstration page uses our WeatherBlox Daily Observations layout. Learn more.

Left ArrowRight Arrow

Hourly Observations for May 3, 2015

Temp ( °F °C ) Dew Point ( °F °C ) Humidity (%) Winds ( mph kmh ) Pressure ( in mb ) Visibility ( mi km ) Precip ( " mm )
12:15 am 00:15 Clear 61 16 45 7 55 55 WSW 8 13 30.03 1017 10 16 N/A
12:35 am 00:35 Clear 61 16 45 7 55 55 WSW 8 13 30.03 1017 10 16 N/A
12:55 am 00:55 Clear 59 15 45 7 59 59 WSW 6 9 30.03 1017 10 16 N/A
1:15 am 01:15 Clear 57 14 45 7 63 63 WSW 5 7 30.03 1017 10 16 N/A
1:35 am 01:35 Clear 59 15 45 7 59 59 W 5 7 30.03 1017 10 16 N/A
1:55 am 01:55 Clear 59 15 45 7 59 59 WSW 6 9 30.03 1017 10 16 N/A
2:15 am 02:15 Clear 57 14 45 7 63 63 WSW 5 7 30.03 1017 10 16 N/A
2:35 am 02:35 Clear 55 13 45 7 67 67 WSW 6 9 30.03 1017 10 16 N/A
2:55 am 02:55 Clear 55 13 45 7 67 67 WSW 6 9 30.03 1017 10 16 N/A
3:15 am 03:15 Clear 55 13 45 7 67 67 WSW 5 7 30.06 1018 10 16 N/A
3:35 am 03:35 Clear 57 14 43 6 59 59 W 6 9 30.06 1018 10 16 N/A
3:55 am 03:55 Clear 54 12 45 7 72 72 N N/A 30.06 1018 10 16 N/A
4:15 am 04:15 Clear 54 12 43 6 67 67 N N/A 30.06 1018 10 16 N/A
4:35 am 04:35 Clear 52 11 45 7 77 77 E 3 6 30.06 1018 10 16 N/A
4:55 am 04:55 Clear 52 11 45 7 77 77 N N/A 30.06 1018 10 16 N/A
5:15 am 05:15 Clear 52 11 45 7 77 77 N N/A 30.06 1018 10 16 N/A
5:35 am 05:35 Clear 50 10 43 6 76 76 N N/A 30.12 1020 10 16 N/A
5:55 am 05:55 Clear 50 10 43 6 76 76 N N/A 30.12 1020 10 16 N/A
6:15 am 06:15 Sunny 50 10 45 7 82 82 W 3 6 30.12 1020 10 16 N/A
6:35 am 06:35 Sunny 50 10 45 7 82 82 W 5 7 30.12 1020 10 16 N/A
6:55 am 06:55 Sunny 52 11 45 7 77 77 W 3 6 30.12 1020 10 16 N/A
7:15 am 07:15 Sunny 54 12 46 8 77 77 W 3 6 30.12 1020 10 16 N/A
7:35 am 07:35 Sunny 55 13 50 10 82 82 WNW 5 7 30.12 1020 10 16 N/A
7:55 am 07:55 Partly Cloudy 61 16 46 8 59 59 WNW 3 6 30.12 1020 10 16 N/A
8:15 am 08:15 Partly Cloudy 64 18 50 10 60 60 W 5 7 30.12 1020 10 16 N/A
8:35 am 08:35 Sunny 68 20 46 8 46 46 WNW 6 9 30.15 1021 10 16 N/A
8:55 am 08:55 Sunny 70 21 46 8 43 43 WNW 6 9 30.15 1021 10 16 N/A
9:15 am 09:15 Sunny 70 21 46 8 43 43 WNW 6 9 30.15 1021 10 16 N/A
9:35 am 09:35 Sunny 72 22 46 8 41 41 W 7 11 30.15 1021 10 16 N/A
9:55 am 09:55 Partly Cloudy 72 22 45 7 38 38 WNW 3 6 30.15 1021 10 16 N/A
10:15 am 10:15 Partly Cloudy 72 22 45 7 38 38 W 3 6 30.15 1021 10 16 N/A
10:35 am 10:35 Sunny 73 23 43 6 33 33 W 3 6 30.15 1021 10 16 N/A
10:55 am 10:55 Sunny 73 23 45 7 36 36 WNW 3 6 30.15 1021 10 16 N/A
11:15 am 11:15 Sunny 75 24 45 7 34 34 N N/A 30.15 1021 10 16 N/A
11:35 am 11:35 Sunny 77 25 46 8 34 34 WNW 6 9 30.15 1021 10 16 N/A
11:55 am 11:55 Sunny 77 25 46 8 34 34 WSW 3 6 30.15 1021 10 16 N/A
12:15 pm 12:15 Sunny 77 25 50 10 39 39 WNW 10 17 30.15 1021 10 16 N/A
12:35 pm 12:35 Sunny 77 25 48 9 36 36 WNW 9 15 30.15 1021 10 16 N/A
12:55 pm 12:55 Sunny 77 25 45 7 32 32 WSW 5 7 30.15 1021 10 16 N/A
1:15 pm 13:15 Partly Cloudy 77 25 45 7 32 32 SSW 5 7 30.12 1020 10 16 N/A
1:35 pm 13:35 Partly Cloudy 79 26 46 8 32 32 WNW 8 13 30.12 1020 10 16 N/A
1:55 pm 13:55 Partly Cloudy 79 26 45 7 30 30 N N/A 30.12 1020 10 16 N/A
2:15 pm 14:15 Partly Cloudy 77 25 46 8 34 34 NNW 9 15 30.12 1020 10 16 N/A
2:35 pm 14:35 Partly Cloudy 77 25 46 8 34 34 NW 9 15 30.12 1020 10 16 N/A
2:55 pm 14:55 Partly Cloudy 79 26 46 8 32 32 WNW 7 11 30.12 1020 10 16 N/A
3:15 pm 15:15 Partly Cloudy 79 26 45 7 30 30 N N/A 30.12 1020 10 16 N/A
3:35 pm 15:35 Mostly Cloudy 79 26 46 8 32 32 N N/A 30.12 1020 10 16 N/A
3:55 pm 15:55 Mostly Cloudy 79 26 45 7 30 30 W 5 7 30.12 1020 10 16 N/A
4:15 pm 16:15 Mostly Cloudy 79 26 46 8 32 32 W 6 9 30.09 1019 10 16 N/A
4:35 pm 16:35 Partly Cloudy 79 26 48 9 34 34 W 5 7 30.09 1019 10 16 N/A
4:55 pm 16:55 Partly Cloudy 79 26 46 8 32 32 W 3 6 30.09 1019 10 16 N/A
5:15 pm 17:15 Partly Cloudy 81 27 46 8 30 30 W 3 6 30.09 1019 10 16 N/A
5:35 pm 17:35 Sunny 79 26 45 7 30 30 WNW 7 11 30.09 1019 10 16 N/A
5:55 pm 17:55 Sunny 79 26 46 8 32 32 W 3 6 30.09 1019 10 16 N/A
6:15 pm 18:15 Partly Cloudy 79 26 46 8 32 32 WSW 6 9 30.09 1019 10 16 N/A
6:35 pm 18:35 Sunny 79 26 46 8 32 32 WSW 7 11 30.09 1019 10 16 N/A
6:55 pm 18:55 Sunny 79 26 45 7 30 30 SSW 6 9 30.09 1019 10 16 N/A
7:15 pm 19:15 Sunny 77 25 46 8 34 34 SSW 8 13 30.09 1019 10 16 N/A
7:35 pm 19:35 Sunny 77 25 46 8 34 34 SSW 6 9 30.09 1019 10 16 N/A
7:55 pm 19:55 Sunny 73 23 46 8 38 38 SSW 5 7 30.12 1020 10 16 N/A
8:15 pm 20:15 Clear 73 23 46 8 38 38 SSW 5 7 30.12 1020 10 16 N/A
8:35 pm 20:35 Clear 70 21 46 8 43 43 SW 5 7 30.12 1020 10 16 N/A
8:55 pm 20:55 Clear 68 20 46 8 46 46 SW 5 7 30.12 1020 10 16 N/A
9:15 pm 21:15 Clear 64 18 50 10 60 60 SW 5 7 30.12 1020 10 16 N/A
9:35 pm 21:35 Clear 63 17 50 10 64 64 SW 5 7 30.15 1021 10 16 N/A
9:55 pm 21:55 Clear 64 18 50 10 60 60 WSW 5 7 30.15 1021 10 16 N/A
10:15 pm 22:15 Clear 66 19 46 8 49 49 SW 3 6 30.15 1021 10 16 N/A
10:35 pm 22:35 Clear 66 19 48 9 52 52 SW 3 6 30.15 1021 10 16 N/A
10:55 pm 22:55 Clear 61 16 48 9 63 63 WSW 3 6 30.15 1021 10 16 N/A
11:15 pm 23:15 Clear 61 16 50 10 68 68 N N/A 30.15 1021 10 16 N/A
11:35 pm 23:35 Clear 61 16 50 10 68 68 SW 3 6 30.15 1021 10 16 N/A
11:55 pm 23:55 Clear 59 15 50 10 72 72 SSW 3 6 30.15 1021 10 16 N/A

Powered by AerisWeather